Regional Weather Roundup
Issued by NWS

Home | Current Version | Previous Version | Graphics & Text | Print | Product List | Glossary On
Versions: 1 2 3 4 5 6 7 8 9 10 11 12 13 14 15 16 17 18 19 20 21 22 23 24 25 26 27 28 29 30 31 32 33 34 35 36 37 38 39 40 41 42 43 44 45 46 47 48 49 50
000
ASUS43 KLOT 222206
RWRIL

ILLINOIS REGIONAL WEATHER ROUNDUP
NATIONAL WEATHER SERVICE CHICAGO/ROMEOVILLE IL
500 PM CDT WED OCT 22 2014

NOTE: "FAIR" INDICATES FEW OR NO CLOUDS BELOW 12,000 FEET WITH NO
SIGNIFICANT WEATHER AND/OR OBSTRUCTIONS TO VISIBILITY.

* THESE STATIONS ARE NOT UNDER NWS QUALITY CONTROL. THEY ALSO MAY NOT
  REPORT WEATHER SUCH AS PRECIPITATION OR FOG.

ILZ001-002-007-009-015-016-024-222300-
NORTHWEST ILLINOIS

CITY           SKY/WX    TMP DP  RH WIND       PRES   REMARKS
MOLINE         SUNNY     60  38  43 SE10      30.21F
STERLING*      SUNNY     61  36  39 S6        30.24F
SAVANNA*       SUNNY     60  34  37 SE10      30.23F
$$

ILZ003-004-008-010-011-017-018-222300-
NORTH CENTRAL ILLINOIS

CITY           SKY/WX    TMP DP  RH WIND       PRES   REMARKS
ROCKFORD       SUNNY     58  35  42 S9        30.26F
FREEPORT*      SUNNY     57  35  43 SE9       30.25F
ROCHELLE*      SUNNY     57  34  41 S5        30.26F
DE KALB*       SUNNY     55  36  50 SE7       30.27F
PERU*          SUNNY     60  35  38 SE8       30.26F
$$

ILZ005-006-012>014-019>023-222300-
NORTHEAST ILLINOIS

CITY           SKY/WX    TMP DP  RH WIND       PRES   REMARKS
CHICAGO-OHARE  CLEAR     51  37  58 E10       30.28F
CHICAGO-MIDWAY CLEAR     52  36  54 E7        30.29F
AURORA         SUNNY     57  37  47 SE6       30.27F
LANSING*       CLEAR     50  36  58 NE7       30.29F
JOLIET*        CLEAR     56  36  47 SE3       30.27F
WAUKEGAN       CLEAR     48  39  71 E7        30.28F
DUPAGE AIRPORT CLEAR     57  37  47 E6        30.26F
KANKAKEE*      CLEAR     56  38  50 NE3       30.27F
WHEELING       CLEAR     51  37  58 E7        30.30F
MORRIS*        SUNNY     58  39  49 E5        30.26F
ROMEOVILLE*    CLEAR     56  36  46 CALM      30.27F HAZE
NORTHERLY ISL    N/A     49  38  65 E8          N/A
$$

LMZ740>746-222300-
SOUTHERN LAKE MICHIGAN

STATION/POSITION SKY/WX   TEMP    WIND        PRES    VSBY  WAVE
                          AIR SEA DIR/SP/G                  HT/PER
                          (F)     (DEG/KT/KT) (MB)    (MI)  (FT/S)
SOUTHERN BUOY              47 55   50/  4/  6 1026.7F         1
WAUKEGAN HARBOR            49     100/  6/  8   N/A
HARRISON CRIB              48      60/  8/ 10   N/A
BURNHAM HARBOR             49      70/  5/  8   N/A
CALUMET HARBOR             49      20/  6/  9 1024.6F
MICHIGAN CITY              49      10/  9/ 11   N/A
$$

ILZ025>027-034>036-040-047-049-050-058-095>099-222300-
WEST-CENTRAL ILLINOIS

CITY           SKY/WX    TMP DP  RH WIND       PRES   REMARKS
QUINCY         SUNNY     61  39  44 SE12      30.20F
GALESBURG*     SUNNY     58  38  46 SE6       30.22F HAZE
MACOMB*        SUNNY     61  38  43 SE10      30.24F
JACKSONVILLE*  SUNNY     63  41  43 SE8       30.22F
PITTSFIELD*    SUNNY     63  42  45 E8        30.21F
$$

ILZ028>032-037-038-041>044-048-051>054-059>061-222300-
CENTRAL ILLINOIS

CITY           SKY/WX    TMP DP  RH WIND       PRES   REMARKS
PONTIAC        SUNNY     58  32  37 SE5       30.27S
BLOOMINGTON    SUNNY     59  38  45 SE7       30.27S
DECATUR        SUNNY     59  38  45 E7        30.25F
PEORIA         SUNNY     61  36  39 SE7       30.24F
LACON*         SUNNY     59  35  40 SE7       30.25S
LINCOLN*       SUNNY     62  36  37 SE5       30.23F
SPRINGFIELD    SUNNY     62  39  42 E5        30.25F
TAYLORVILLE    SUNNY     59  37  44 E6        30.24F
$$

ILZ033-039-045-046-055>057-062-063-222300-
EAST-CENTRAL ILLINOIS

CITY           SKY/WX    TMP DP  RH WIND       PRES   REMARKS
CHAMPAIGN      SUNNY     59  36  42 E3        30.26F
DANVILLE*      SUNNY     57  36  44 CALM      30.24S
RANTOUL*       SUNNY     60  35  40 E5        30.25F
MATTOON        SUNNY     59  37  44 NE8       30.24F
PARIS*         SUNNY     59  40  49 E3        30.26F
$$

ILZ079-100>102-222300-
SOUTHWEST ILLINOIS

CITY           SKY/WX    TMP DP  RH WIND       PRES   REMARKS
ALTON          SUNNY     61  37  41 SE6       30.23F
BELLEVILLE     SUNNY     63  42  45 NE5       30.22F
CAHOKIA*       SUNNY     64  44  48 E7        30.22F
SPARTA*        HAZE      62  41  46 NE3       30.24S VSB 1/2
$$

ILZ064>066-069>071-074>076-080>082-084>086-088>090-092>094-222300-
SOUTH-CENTRAL ILLINOIS

CITY           SKY/WX    TMP DP  RH WIND       PRES   REMARKS
CARBONDALE     SUNNY     63  40  42 E7        30.23S
CAIRO*         SUNNY     67  42  40 E3        30.21F
EFFINGHAM*     SUNNY     61  34  35 E3        30.24F
MARION         SUNNY     63  41  45 NE9       30.24F
MT. VERNON     SUNNY     61  41  48 NE5       30.25S
CENTRALIA*     SUNNY     62  37  40 E5        30.24F
SALEM*         SUNNY     63  41  44 NE5       30.24F
METROPOLIS*    SUNNY     63  42  47 NE3       30.21F
$$

ILZ067-068-072-073-078-083-087-091-222300-
SOUTHEAST ILLINOIS

CITY           SKY/WX    TMP DP  RH WIND       PRES   REMARKS
LAWRENCEVILLE  SUNNY     61  40  45 NE6       30.25S
FLORA*         SUNNY     60  37  43 NE3       30.25F
FAIRFIELD*     SUNNY     61  38  43 CALM      30.23F HAZE
HARRISBURG*    SUNNY     61  40  46 E5        30.24F
ROBINSON*      SUNNY     62  42  46 N3        30.26S
CARMI*         SUNNY     63  42  45 NE6       30.23F
$$

ABBREVIATIONS USED IN REMARKS
   TC - TEMPERATURE IN CELSIUS
  WCI - WIND CHILL INDEX
   HX - HEAT INDEX
  VSB - VISIBILITY
$$




USA.gov is the U.S. government's official web portal to all federal, state and local government web resources and services.